Simultaneous Nadir Overpasses (SNOs) Predictions

Prediction of SNOs between NOAA-20 and AQUA Satellite Orbit:

Table of predicted SNOs for the next 14.0 days since TLE Epoch: 12/17/2022
Index Date (NOAA-20) Time (NOAA-20) Lat,Lon (NOAA-20) SZA (NOAA-20 ) Date (AQUA) Time (AQUA) Lat,Lon (AQUA) SZA (AQUA ) Distance(km) Time Diff (sec)
1 12/18/2022 20:10:47 79.60, 134.92 115.09 12/18/2022 20:11:04 79.60, 134.97 115.07 0.97 17
2 12/18/2022 21:01:26 -79.80, -55.98 65.25 12/18/2022 21:00:25 -79.81, -55.87 65.23 2.38 61
3 12/21/2022 11:36:56 -79.71, 84.37 65.01 12/21/2022 11:37:00 -79.71, 84.26 64.99 2.18 4
4 12/21/2022 12:26:34 81.16, -85.91 111.44 12/21/2022 12:25:21 81.45, -86.60 111.65 33.57 73
5 12/24/2022 02:12:31 -79.43,-136.94 64.50 12/24/2022 02:13:38 -79.43,-136.84 64.57 2.00 67
6 12/24/2022 03:03:08 79.67, 32.44 115.11 12/24/2022 03:02:56 79.68, 32.59 115.09 3.06 12
7 12/26/2022 17:38:37 79.61, 173.01 115.20 12/26/2022 17:39:29 79.60, 172.87 115.19 3.06 52
8 12/26/2022 18:29:16 -79.81, -17.86 65.15 12/26/2022 18:28:50 -79.80, -17.93 65.12 1.40 26
9 12/29/2022 09:04:50 -79.59, 121.28 64.83 12/29/2022 09:05:26 -79.59, 121.34 64.87 1.34 36



Historial Predications of SNOs between NOAA-20 and AQUA
